Torna al catalogo

STARLINK-5447

AttivoComunicazioniVLEO
NORAD 54779·PAYLOAD·🇺🇸 United States

Lanciato Dec 17, 2022 da Cape Canaveral Space Force Station

Loading…

Prossimi Passaggi (prossime 24 ore)

TLE

AggiornatoSource: CelesTrak SupGP

Epoca: Sep 15, 2026, 02:16 UTC

1 54779C 22175X   26258.09493056 -.00021950  00000+0 -64797-3 0  2580
2 54779  53.1572 245.0138 0001212  95.4842 187.7585 15.34427696    17

Traccia STARLINK-5447 in tempo reale con AllMySat

Download on the App Store